AirNav   Phillips 66 Aviation Fuel
 
 922 users online  

KPHK Palm Beach County Glades Airport
Pahokee, Florida, USA

GOING TO PAHOKEE?


FAA INFORMATION EFFECTIVE 23 MAY 2019

Location

FAA Identifier: PHK
Lat/Long: 26-47-06.1000N / 080-41-36.1000W
26-47.101667N / 080-41.601667W
26.7850278 / -80.6933611
(estimated)
Elevation: 15.9 ft. / 4.8 m (surveyed)
Variation: 07W (2020)
From city: 3 miles SW of PAHOKEE, FL
Time zone: UTC -4 (UTC -5 during Standard Time)
Zip code: 33476

Airport Operations

Airport use: Open to the public
Activation date: 06/1949
Control tower: no
ARTCC: MIAMI CENTER
FSS: MIAMI FLIGHT SERVICE STATION
NOTAMs facility: MIA (NOTAM-D service available)
Attendance: 0800-1800
FOR SVC AFTER HRS CTC FBO AT 561-626-9799.
Wind indicator: lighted
Segmented circle: yes
Lights: ACTVT MIRL RY 18/36 - CTAF.
Beacon: white-green (lighted land airport)
Operates sunset to sunrise.

Airport Communications

CTAF/UNICOM: 122.8
PALM BEACH APPROACH: 128.3
PALM BEACH DEPARTURE: 128.3

Nearby radio navigation aids

VOR radial/distance  VOR name  Freq  Var
PHK at fieldPAHOKEE VOR/DME115.4000E
PBIr284/33.1PALM BEACH VORTAC115.7003W
LBVr093/37.5LA BELLE VORTAC110.4001E

 
NDB name  Hdg/Dist  Freq  Var  ID
UNITED254/20.640505WUTX ..- - -..-

Airport Services

Fuel available: 100LL JET-A
Parking: hangars and tiedowns
Airframe service: NONE
Powerplant service: NONE
Bottled oxygen: NONE
Bulk oxygen: NONE

Runway Information

Runway 18/36

Dimensions: 4116 x 75 ft. / 1255 x 23 m
Surface: asphalt, in good condition
Weight bearing capacity: 
Single wheel: 20.0
Runway edge lights: medium intensity
RUNWAY 18  RUNWAY 36
Latitude: 26-47.439657N26-46.764527N
Longitude: 080-41.643560W080-41.558973W
Elevation: 15.3 ft.15.6 ft.
Traffic pattern: leftleft
Runway heading: 181 magnetic, 174 true001 magnetic, 354 true
Displaced threshold: 100 ft.52 ft.
Declared distances: TORA:4069 TODA:4069 ASDA:4119 LDA:4016TORA:4016 TODA:4016 ASDA:4170 LDA:4069
Markings: nonprecision, in good conditionnonprecision, in good condition
Visual slope indicator: 2-light PAPI on left (3.00 degrees glide path)2-light PAPI on left (3.00 degrees glide path)
Runway end identifier lights: yesyes
Touchdown point: yes, no lightsyes, no lights
Obstructions: 36 ft. tree, 1050 ft. from runway, 155 ft. right of centerline, 23:1 slope to clear
RY 18 APCH RATIO 34:1 AT DSPLCD THLD.
3 ft. fence, 213 ft. from runway, 250 ft. left of centerline, 6:1 slope to clear
RY 36 APCH RATIO 34:1 AT DSPLCD THLD DUE TO 25 FT PLINE 820 FT FM THE END 250 FT R OF RY CNTRLN.

Airport Ownership and Management from official FAA records

Ownership: Publicly-owned
Owner: PALM BEACH COUNTY
DEPARTMENT OF AIRPORTS, 846 PBIA
WEST PALM BEACH, FL 33406-1491
Phone 561-471-7412
CONTACT PERSON: ROBERT WEISMAN
Manager: TOM STEWART
1000 PBIA, SUITE 123
WEST PALM BEACH, FL 33406-1470
Phone (561) 471-7405
AIRPORT PHYSICAL ADDRESS: 3800 STATE ROAD 715, PAHOKEE, FL 33476

Airport Operational Statistics

Aircraft based on the field: 26
Single engine airplanes: 8
Multi engine airplanes: 1
Helicopters: 2
Ultralights: 15
    
Aircraft operations: avg 101/day *
79% transient general aviation
20% local general aviation
<1% air taxi
* for 12-month period ending 12 January 2018

Additional Remarks

BIRDS ON AND INVOF ARPT.
FBO (561) 924-5696.
ALL TWYS HAVE BEEN RENAMED.
AIRPORT SURFACE CONDITIONS NOT REPORTED FOR ALL RUNWAYS.

Instrument Procedures

NOTE: All procedures below are presented as PDF files. If you need a reader for these files, you should download the free Adobe Reader.

NOT FOR NAVIGATION. Please procure official charts for flight.
FAA instrument procedures published for use from 23 May 2019 at 0901Z to 20 June 2019 at 0900Z.

 
IAPs - Instrument Approach Procedures
RNAV (GPS) RWY 18   download (187KB)
RNAV (GPS) RWY 36   download (193KB)
NOTE: Special Take-Off Minimums/Departure Procedures apply   download (257KB)

Other nearby airports with instrument procedures:

2IS - Airglades Airport (19 nm W)
06FA - William P Gwinn Airport (21 nm E)
F45 - North Palm Beach County General Aviation Airport (25 nm E)
KOBE - Okeechobee County Airport (30 nm N)
KPBI - Palm Beach International Airport (33 nm E)
 
Loc | Ops | Rwys | IFR | FBO | Links
Com | Nav | Svcs | Stats | Notes


 
Area around KPHK (Palm Beach County Glades Airport)
 
Road maps at: MapQuest Bing Google
 
Aerial photo
WARNING: Photo may not be current or correct
Aerial photo of KPHK (Palm Beach County Glades Airport)
Photo by Dave Fogarty
ATP/CFI-AIS/A&P-IA
Photo taken 28-Oct-2018
looking south.

Do you have a better or more recent aerial photo of Palm Beach County Glades Airport that you would like to share? If so, please send us your photo.

 
Sectional chart

 
Airport diagram
CAUTION: Diagram may not be current
Diagram of KPHK (Palm Beach County Glades Airport)
 
Airport distance calculator
Flying to Palm Beach County Glades Airport? Find the distance to fly.

From to KPHK

Sunrise and sunset
Times for 26-May-2019
 Local
(UTC-4)
 Zulu
(UTC)
Morning civil twilight06:0610:06
Sunrise06:3210:32
Sunset20:0800:08
Evening civil twilight20:3400:34

Current date and time
Zulu (UTC)  26-May-2019 16:40:46
Local (UTC-4)  26-May-2019 12:40:46
 
METAR
KF45 
25nm E 
261610Z AUTO 10012G15KT 10SM BKN028 30/21 A3014 RMK AO2
KOBE 
30nm N 
261615Z AUTO 10008KT 055V125 10SM SCT035 31/21 A3014 RMK AO2
KPBI 
32nm E 
261553Z 09009G17KT 10SM BKN022 BKN030 29/21 A3015 RMK AO2 SLP210 T02940211
KSUA 
35nm NE 
261550Z 10009KT 7SM FEW025 29/20 A3017
KBCT 
40nm SE 
261547Z 10010KT 10SM SCT030 31/22 A3014
KIMM 
43nm SW 
261615Z AUTO 09010KT 10SM SCT040 31/21 A3011 RMK AO2
KFXE 
45nm SE 
261553Z 10014KT 10SM SCT027 30/20 A3013 RMK AO2 SLP206 T03000200
KPMP 
45nm SE 
261553Z 09009KT 9SM CLR 30/21 A3013 RMK AO2 SLP205 T03000211
KFPR 
46nm N 
261553Z 11009KT 10SM SCT024 29/21 A3015 RMK AO2 SLP210 T02890211
TAF
KPBI 
32nm E 
261455Z 2615/2712 09016KT P6SM SCT030 FM270400 08011KT P6SM SCT025
KSUA 
35nm NE 
261126Z 2612/2712 11007KT P6SM SCT025 TEMPO 2612/2613 BKN025 FM261600 09012G19KT P6SM SCT025 FM270200 00000KT P6SM SKC
NOTAMs
Click for the latest NOTAMs
NOTAMs are issued by the DoD/FAA and will open in a separate window not controlled by AirNav.

 

 
 

FBO, Fuel Providers, and Aircraft Ground Support

  
 Business Name 
 
 Contact 
 
 Services / Description 
 
Fuel Prices
 
Comments
  
Signature Flight Support UNICOM 122.80
561-924-5253
[web site]
[email]
3 miles southwest of the central business district of Pahokee, Florida. Palm Beach County Glades airport is right on the shore of Lake Okeechobee.
More info and photos of Signature Flight Support
 
Signature TailWins®   Signature Weekend Takeoff   NATA Safety 1st   Crew cars   Wireless Internet Access (WiFi)  
 
Shell
100LL Jet A
FS $5.91 $6.94 
GUARANTEED
 
   write
FS=Full service
Update Fuel Prices
 

Would you like to see your business listed on this page?

 If your business provides an interesting product or service to pilots, flight crews, aircraft, or users of the Palm Beach County Glades Airport, you should consider listing it here.  To start the listing process, click on the button below
 
Add a business
 

Other Pages about Palm Beach County Glades Airport

www.pbia.org/...
 
Update a link
 
Copyright © AirNav, LLC. All rights reserved. Privacy Policy  Contact